New York Downtown Manhattan/w, NY

9:00 PM EDT on September 20, 2019 (GMT -0400)
New York Downtown Manhattan/w

Weather History for KJRB - May, 2019

Change the Weather History Date:

Friday, May 24, 2019

  Actual Average (WUND) Record (WUND)
Temperature  
Mean Temperature 70 °F -  
Max Temperature 77 °F - - (-1)
Min Temperature 63 °F - - (-1)
Cooling Degree Days 4    
Growing Degree Days 20 (Base 50)    
Moisture  
Dew Point 54 °F    
Average Humidity 59    
Maximum Humidity 90    
Minimum Humidity 42    
Precipitation  
Precipitation 0.02 in - - ()
Sea Level Pressure  
Sea Level Pressure 29.94 in    
Wind  
Wind Speed 5 mph ()    
Max Wind Speed 14 mph    
Max Gust Speed 41 mph    
Visibility 10.0 miles    
Events      
Averages and records for this station are not official NWS values.
T = Trace of Precipitation, MM = Missing Value Source: Averaged Metar Reports

Daily Weather History Graph

Daily Weather History Graph

Search for Another Location

Airport or City:

Astronomy

May. 24, 2019 Rise Set
Actual Time 5:31 AM EDT 8:14 PM EDT
Civil Twilight 4:59 AM EDT 8:46 PM EDT
Nautical Twilight 4:19 AM EDT 9:26 PM EDT
Astronomical Twilight 3:34 AM EDT 10:12 PM EDT
Moon 12:37 AM EDT (5/24) 10:30 AM EDT (5/24)
Length of Visible Light 15h 46m
Length of Day
14h 42m
Waning Gibbous, 69% of the Moon is Illuminated
May 24
Waning Gibbous
May 26
Last Quarter
Jun 3
New
Jun 10
First Quarter
Jun 17
Full

Hourly Weather History & Observations

Time (EDT) Temp. Dew Point Humidity Pressure Visibility Wind Dir Wind Speed Gust Speed Precip Events Conditions
12:56 AM 68.0 °F 64.9 °F 90% 29.81 in 10.0 mi West 13.8 mph - N/A   Clear
1:56 AM 69.1 °F 64.9 °F 87% 29.81 in 10.0 mi Variable 4.6 mph - N/A   Clear
2:56 AM 68.0 °F 64.9 °F 90% 29.80 in 10.0 mi West 6.9 mph - N/A   Clear
3:56 AM 68.0 °F 64.0 °F 87% 29.80 in 10.0 mi West 5.8 mph - N/A   Clear
4:56 AM 66.9 °F 61.0 °F 81% 29.81 in 10.0 mi Calm Calm - N/A   Clear
5:56 AM 66.9 °F 55.9 °F 68% 29.83 in 10.0 mi Variable 5.8 mph - N/A   Clear
6:56 AM 66.9 °F 52.0 °F 59% 29.86 in 10.0 mi Variable 5.8 mph - N/A   Clear
7:56 AM 66.9 °F 50.0 °F 54% 29.86 in 10.0 mi Variable 5.8 mph - N/A   Clear
8:56 AM 68.0 °F 51.1 °F 55% 29.88 in 10.0 mi Variable 4.6 mph - N/A   Clear
9:56 AM 72.0 °F 50.0 °F 46% 29.87 in 10.0 mi Variable 4.6 mph - N/A   Clear
10:56 AM 73.0 °F 51.1 °F 46% 29.89 in 10.0 mi Variable 3.5 mph - N/A   Scattered Clouds
11:56 AM 73.9 °F 51.1 °F 45% 29.89 in 10.0 mi Variable 6.9 mph - N/A   Partly Cloudy
12:56 PM 75.0 °F 52.0 °F 44% 29.92 in 10.0 mi Variable 3.5 mph - N/A   Mostly Cloudy
1:56 PM 75.9 °F 53.1 °F 45% 29.94 in 10.0 mi WNW 9.2 mph 41.4 mph N/A   Mostly Cloudy
2:56 PM 75.9 °F 51.1 °F 42% 29.94 in 10.0 mi Variable 5.8 mph 39.1 mph 0.02 in   Mostly Cloudy
3:56 PM 75.0 °F 52.0 °F 44% 29.96 in 10.0 mi Variable 3.5 mph - N/A   Partly Cloudy
4:56 PM 75.0 °F 52.0 °F 44% 29.98 in 10.0 mi Variable 5.8 mph - N/A   Clear
5:56 PM 75.0 °F 52.0 °F 44% 30.01 in 10.0 mi Variable 4.6 mph - N/A   Clear
6:56 PM 72.0 °F 52.0 °F 49% 30.04 in 10.0 mi SE 5.8 mph - N/A   Clear
7:56 PM 69.1 °F 51.1 °F 53% 30.08 in 10.0 mi Variable 3.5 mph - N/A   Clear
8:56 PM 66.9 °F 50.0 °F 54% 30.11 in 10.0 mi Calm Calm - N/A   Clear
9:56 PM 64.9 °F 50.0 °F 58% 30.13 in 10.0 mi Variable 3.5 mph - N/A   Clear
10:56 PM 64.0 °F 50.0 °F 60% 30.12 in 10.0 mi Variable 3.5 mph - N/A   Clear
11:56 PM 63.0 °F 50.0 °F 63% 30.14 in 10.0 mi Variable 3.5 mph - N/A   Clear